{"data":{"norad_id":68166,"intl_designator":"2026-049AA","name":"STARLINK-36273","alt_names":[],"object_type":"PAYLOAD","status":"ACTIVE","operator":null,"country":"US","launch_date":"2026-03-13","launch_site_code":"AFWTR","launch_vehicle":null,"mission":null,"orbit_class":"UNKNOWN","rcs_meters":null,"size_class":null,"mass_kg":null,"dimensions":null,"purposes":["comms"],"wikipedia_slug":null,"has_3d_model":false,"image_url":null,"decayed_at":null,"tle_current":{"epoch":"2026-05-25T04:00:03.998880Z","epoch_age_seconds":63721,"freshness":"FRESH","line1":"1 68166U 26049AA  26145.16671295 -.00047775  00000+0 -14862-2 0  9997","line2":"2 68166  97.2851 167.6582 0001721  81.6838 230.9456 15.33457002  5881","mean_motion":15.33457002,"eccentricity":0.0001721,"inclination_deg":97.2851,"raan_deg":167.6582,"arg_perigee_deg":81.6838,"mean_anomaly_deg":230.9456,"bstar":-0.0014862,"rev_number":588,"period_min":93.905469675504,"perigee_km":464.3296739907,"apogee_km":466.68525641563,"semimajor_km":6843.6444652032,"source":"CELESTRAK","updated_at":"2026-05-25T13:38:21.851812Z"}}}